TimeCDT,TemperatureF,Dew PointF,Humidity,Sea Level PressureIn,VisibilityMPH,Wind Direction,Wind SpeedMPH,Gust SpeedMPH,PrecipitationIn,Events,Conditions,WindDirDegrees,DateUTC
12:53 AM,61.0,54.0,78,30.25,10.0,SE,4.6,-,N/A,,Clear,140,2011-10-08 05:53:00
1:53 AM,60.1,54.0,80,30.25,10.0,SE,3.5,-,N/A,,Clear,130,2011-10-08 06:53:00
2:53 AM,57.9,54.0,87,30.25,10.0,SE,3.5,-,N/A,,Clear,140,2011-10-08 07:53:00
3:53 AM,55.0,52.0,89,30.26,7.0,SE,3.5,-,N/A,,Clear,130,2011-10-08 08:53:00
4:53 AM,55.0,52.0,89,30.27,10.0,Calm,Calm,-,N/A,,Clear,0,2011-10-08 09:53:00
5:53 AM,55.0,51.1,86,30.29,10.0,SE,3.5,-,N/A,,Clear,130,2011-10-08 10:53:00
6:53 AM,53.1,50.0,89,30.32,9.0,Calm,Calm,-,N/A,,Clear,0,2011-10-08 11:53:00
7:53 AM,57.0,53.1,87,30.33,7.0,Calm,Calm,-,N/A,,Clear,0,2011-10-08 12:53:00
8:53 AM,64.9,55.0,70,30.34,10.0,SSE,6.9,-,N/A,,Clear,150,2011-10-08 13:53:00
9:53 AM,70.0,55.0,59,30.35,10.0,South,10.4,-,N/A,,Clear,170,2011-10-08 14:53:00
10:53 AM,73.9,55.9,53,30.33,10.0,South,12.7,18.4,N/A,,Clear,170,2011-10-08 15:53:00
11:53 AM,77.0,57.0,50,30.32,10.0,South,9.2,17.3,N/A,,Clear,180,2011-10-08 16:53:00
12:53 PM,77.0,57.9,52,30.30,10.0,South,9.2,-,N/A,,Clear,190,2011-10-08 17:53:00
1:53 PM,79.0,55.9,45,30.27,10.0,SW,8.1,-,N/A,,Scattered Clouds,220,2011-10-08 18:53:00
2:53 PM,80.1,55.0,42,30.26,10.0,SSE,8.1,-,N/A,,Partly Cloudy,150,2011-10-08 19:53:00
3:53 PM,79.0,53.1,40,30.25,10.0,ESE,8.1,-,N/A,,Scattered Clouds,120,2011-10-08 20:53:00
4:53 PM,79.0,53.1,40,30.24,10.0,SE,10.4,-,N/A,,Clear,140,2011-10-08 21:53:00
5:53 PM,75.0,55.0,50,30.24,10.0,ESE,5.8,-,N/A,,Clear,110,2011-10-08 22:53:00
6:53 PM,68.0,54.0,61,30.24,10.0,ESE,5.8,-,N/A,,Clear,110,2011-10-08 23:53:00
7:53 PM,68.0,55.0,63,30.25,10.0,ESE,3.5,-,N/A,,Clear,120,2011-10-09 00:53:00
8:53 PM,61.0,54.0,78,30.25,10.0,SSE,3.5,-,N/A,,Clear,150,2011-10-09 01:53:00
9:53 PM,60.1,54.0,80,30.25,10.0,Calm,Calm,-,N/A,,Clear,0,2011-10-09 02:53:00
10:53 PM,57.9,54.0,87,30.26,10.0,Calm,Calm,-,N/A,,Clear,0,2011-10-09 03:53:00
11:53 PM,57.0,54.0,89,30.27,10.0,Calm,Calm,-,N/A,,Clear,0,2011-10-09 04:53:00